Grant Township, Minnesota
Current Conditions -  °F | °C
As of 3:31 PM on Saturday 22 Nov 2014 (Local Time) from K21D Reporting Station
Haze Haze  
Wind Chill: 25°   Ceiling: 400
Heat Index: 34°   Visibility: 3mi
Dew Point: 34°   Wind: 12mph
Humidity: 100%   Direction: 190°S
Pressure: 29.7"   Gusts: NA
Location:  45.051°N, 92.9612°W
Report Text: K21D 222131Z AUTO 19010KT 3SM BR OVC004 01/01 A2970 RMK AO2
Loading
Personal Weather Stations






























Interactive Weather Map New forecast layout! Learn more

10-Day Weather Forecast

Advertisements
Track Severe Weather on mobile